Home   Weather   Garmisch-Partenkirchen   Past weeks

Flag for Germany Past Weather in Garmisch-Partenkirchen, Bavaria, Germany — Yesterday and Last 2 Weeks

43 °F

Passing clouds.

Feels Like: 43 °F
Forecast: 32 / 58 °F
Wind: 2 mph from North

Location: Innsbruck-Flughafen

Current Time: Oct 28, 2016 at 8:35:56 AM

Latest Report: Oct 28, 2016 at 7:50 AM

Visibility: N/A

Pressure: 30.57 "Hg (28.06 "Hg at 699m altitude)

Humidity: 93%

Dew Point: 41 °F

Location of Garmisch-PartenkirchenLocation

Past Weather in Garmisch-Partenkirchen — Graph


Garmisch-Partenkirchen Temperature Yesterday

Maximum temperature yesterday: 59 °F (at 3:20 PM)
Minimum temperature yesterday: 46 °F (at 11:20 PM)
Average temperature yesterday: 51 °F

High & Low Weather Summary for the Past Weeks

High70 °F (Oct 24, 3:50 PM)100% (Oct 13, 9:20 AM)30.57 "Hg (Oct 13, 9:20 AM)
Low30 °F (Oct 13, 7:20 AM)36% (Oct 13, 3:20 PM)29.74 "Hg (Oct 14, 5:50 PM)
Average50 °F81%30.10 "Hg
* Reported Oct 13 7:20 AM — Oct 28 7:20 AM, Garmisch-Partenkirchen, Weather by CustomWeather, © 2016

Note: Actual official high and low records may vary slightly from our data, if they occured in-between our weather recording intervals... More about our weather records


Garmisch-Partenkirchen Weather History for the Previous 24 Hours

Scroll right to see more
Time TempWeatherWind HumidityBarometerVisibility
7:20 AM
Fri, Oct 28
43 °FPassing clouds.5 mph93%30.57 "HgN/A
6:50 AM45 °FPassing clouds.2 mph87%30.54 "HgN/A
6:20 AM45 °FPartly cloudy.1 mph93%30.57 "Hg6 mi
5:50 AM45 °FPartly cloudy.2 mph93%30.57 "Hg6 mi
5:20 AM45 °FPassing clouds.1 mph93%30.54 "HgN/A
4:50 AM45 °FPassing clouds.3 mph93%30.54 "HgN/A
4:20 AM45 °FPassing clouds.2 mph93%30.54 "Hg6 mi
3:50 AM46 °FPartly cloudy.2 mph93%30.54 "Hg6 mi
3:20 AM46 °FOvercast.1 mph93%30.54 "Hg6 mi
2:50 AM46 °FPassing clouds.3 mph93%30.54 "Hg5 mi
2:20 AM46 °FPassing clouds.1 mph93%30.54 "Hg4 mi
1:50 AM46 °FPartly cloudy.1 mph93%30.57 "HgN/A
1:20 AM46 °FPassing clouds.2 mph93%30.57 "Hg5 mi
12:50 AM46 °FPassing clouds.2 mph93%30.57 "HgN/A
12:20 AM46 °FPassing clouds.1 mph87%30.57 "HgN/A
11:50 PM
Thu, Oct 27
46 °FPassing clouds.No wind87%30.54 "HgN/A
11:20 PM46 °FPassing clouds.2 mph87%30.57 "HgN/A
10:50 PM48 °FPassing clouds.1 mph87%30.57 "HgN/A
10:20 PM48 °FPassing clouds.2 mph87%30.57 "HgN/A
9:50 PM48 °FPassing clouds.1 mph87%30.57 "HgN/A
9:20 PM48 °FPassing clouds.3 mph87%30.57 "HgN/A
8:50 PM48 °FPassing clouds.3 mph87%30.54 "HgN/A
8:20 PM48 °FPassing clouds.1 mph87%30.54 "HgN/A
7:50 PM50 °FPassing clouds.1 mph82%30.54 "HgN/A
7:20 PM50 °FPassing clouds.1 mph82%30.51 "HgN/A
6:50 PM50 °FPassing clouds.3 mph82%30.51 "HgN/A
6:20 PM54 °FPassing clouds.5 mph72%30.48 "HgN/A
5:50 PM54 °FPassing clouds.7 mph72%30.48 "HgN/A
5:20 PM55 °FPassing clouds.9 mph67%30.48 "HgN/A
4:50 PM57 °FPassing clouds.8 mph59%30.48 "HgN/A
4:20 PM57 °FPassing clouds.6 mph63%30.45 "HgN/A
3:50 PM57 °FPassing clouds.6 mph63%30.45 "HgN/A
3:20 PM59 °FPassing clouds.6 mph59%30.45 "HgN/A
2:50 PM57 °FPassing clouds.6 mph63%30.48 "HgN/A
2:20 PM57 °FScattered clouds.5 mph67%30.48 "HgN/A
1:50 PM57 °FScattered clouds.3 mph63%30.48 "HgN/A
1:20 PM55 °FScattered clouds.3 mph72%30.48 "HgN/A
12:50 PM55 °FScattered clouds.3 mph72%30.51 "HgN/A
12:20 PM52 °FScattered clouds.3 mph82%30.51 "HgN/A
11:50 AM52 °FScattered clouds.2 mph82%30.51 "HgN/A
11:20 AM50 °FBroken clouds.3 mph82%30.51 "HgN/A
10:50 AM50 °FBroken clouds.3 mph88%30.51 "HgN/A
10:20 AM48 °FBroken clouds.8 mph94%30.51 "Hg4 mi
9:50 AM48 °FFog.6 mph94%30.48 "Hg3 mi
9:20 AM48 °FFog.5 mph94%30.48 "Hg3 mi
8:50 AM48 °FFog.3 mph94%30.48 "Hg3 mi
8:20 AM48 °FBroken clouds.2 mph94%30.45 "Hg4 mi
Weather by CustomWeather, © 2016

See weather overviewHow to use our weather pages